HADES-R

Last updated on Mon Sep 15 2025 00:03:10 GMT+0000 (Coordinated Universal Time)

1 62690U 25009CK 25256.99511155 .00040678 00000+0 11334-2 0 9993 2 62690 97.4012 337.8422 0003036 134.4002 225.7491 15.36668528 36912
UTC large
Height (km)
Speed (km/s)
/
Latitude / Longitude
Inclination (degrees)
Orbital Period (minutes)
Azimuth
Elevation
Range (km)
Doppler Factor

Next 0 passes for location: London (51.5072 / 0.1276)

Sorry there are no passes over London.